| time (UTC) | temp F | wind direction | speed knots | gust knots | rain 1hr in | rain 24hr in | rain mn in | humidity % | barometer mb |
| 20260504193006 | 50 | 243 | 0.0 | 8.7 | 0.01 | 0.12 | 0.12 | 93 | 1007.9 |
| 20260504191503 | 50 | 256 | 0.9 | 3.5 | 0.01 | 0.12 | 0.12 | 93 | 1007.5 |
| 20260504190002 | 50 | 238 | 0.0 | 1.7 | 0.00 | 0.11 | 0.11 | 93 | 1007.8 |
| 20260504184503 | 50 | 237 | 0.0 | 1.7 | 0.00 | 0.11 | 0.11 | 93 | 1008.0 |
| 20260504183001 | 50 | 237 | 0.0 | 2.6 | 0.00 | 0.11 | 0.11 | 93 | 1007.9 |
| 20260504181603 | 49 | 331 | 0.0 | 3.5 | 0.00 | 0.11 | 0.11 | 93 | 1008.1 |
| 20260504180058 | 50 | 40 | 0.0 | 2.6 | 0.00 | 0.11 | 0.11 | 93 | 1008.0 |
| 20260504174557 | 50 | 250 | 0.0 | 1.7 | 0.01 | 0.11 | 0.11 | 93 | 1007.6 |
| 20260504173052 | 50 | 250 | 0.0 | 3.5 | 0.01 | 0.11 | 0.11 | 93 | 1007.5 |
| 20260504171548 | 50 | 332 | 0.0 | 3.5 | 0.01 | 0.11 | 0.11 | 93 | 1007.6 |
| 20260504081557 | 51 | 99 | 0.0 | 5.2 | 0.00 | 0.00 | 0.00 | 85 | 1006.1 |
| 20260504044532 | 55 | 238 | 0.0 | 2.6 | 0.00 | 0.00 | 0.00 | 81 | 1005.2 |
| 20260504043044 | 55 | 238 | 0.0 | 3.5 | 0.00 | 0.00 | 0.00 | 80 | 1005.2 |
| 20260504041533 | 56 | 238 | 0.0 | 0.0 | 0.00 | 0.00 | 0.00 | 80 | 1005.0 |
| 20260504040028 | 56 | 238 | 0.0 | 2.6 | 0.00 | 0.00 | 0.00 | 79 | 1005.0 |
| 20260504034528 | 56 | 238 | 0.0 | 3.5 | 0.00 | 0.00 | 0.00 | 78 | 1005.0 |
| 20260504033025 | 57 | 238 | 0.0 | 6.1 | 0.00 | 0.00 | 0.00 | 77 | 1004.7 |
| 20260504031526 | 58 | 252 | 0.0 | 2.6 | 0.00 | 0.00 | 0.00 | 77 | 1004.6 |
| 20260504030022 | 58 | 255 | 0.0 | 3.5 | 0.00 | 0.00 | 0.00 | 77 | 1004.4 |
| 20260504024522 | 58 | 254 | 0.0 | 4.3 | 0.00 | 0.00 | 0.00 | 76 | 1004.1 |
| 20260504023021 | 58 | 252 | 0.0 | 4.3 | 0.00 | 0.00 | 0.00 | 75 | 1004.0 |
| 20260504021520 | 59 | 234 | 0.0 | 3.5 | 0.00 | 0.00 | 0.00 | 74 | 1003.9 |
| 20260504020030 | 60 | 261 | 0.9 | 6.1 | 0.00 | 0.00 | 0.00 | 72 | 1003.8 |
| 20260504014519 | 60 | 241 | 0.9 | 7.0 | 0.00 | 0.00 | 0.00 | 71 | 1003.7 |
| 20260504013022 | 61 | 260 | 0.9 | 5.2 | 0.00 | 0.00 | 0.00 | 70 | 1003.5 |
| 20260504011518 | 62 | 224 | 0.0 | 4.3 | 0.00 | 0.00 | 0.00 | 70 | 1003.5 |
| 20260504010017 | 64 | 240 | 0.0 | 4.3 | 0.00 | 0.00 | 0.00 | 68 | 1003.4 |
| 20260504004533 | 65 | 274 | 0.0 | 6.1 | 0.00 | 0.00 | 0.00 | 66 | 1003.2 |
| 20260504003017 | 66 | 196 | 0.0 | 2.6 | 0.00 | 0.00 | 0.00 | 65 | 1003.2 |
| 20260504001529 | 66 | 258 | 0.9 | 6.1 | 0.00 | 0.00 | 0.00 | 64 | 1003.2 |
| 20260504000014 | 66 | 169 | 0.0 | 4.3 | 0.00 | 0.00 | 0.00 | 63 | 1003.0 |
| 20260503234517 | 67 | 229 | 0.0 | 3.5 | 0.00 | 0.00 | 0.00 | 63 | 1002.9 |
| 20260503233013 | 68 | 246 | 0.0 | 7.0 | 0.00 | 0.00 | 0.00 | 62 | 1002.9 |
| 20260503231510 | 68 | 281 | 0.0 | 4.3 | 0.00 | 0.00 | 0.00 | 64 | 1003.0 |
| 20260503230009 | 67 | 151 | 0.0 | 4.3 | 0.00 | 0.00 | 0.00 | 63 | 1003.0 |
| 20260503224507 | 67 | 262 | 0.0 | 6.1 | 0.00 | 0.00 | 0.00 | 63 | 1003.1 |
| 20260503223007 | 67 | 262 | 0.0 | 6.1 | 0.00 | 0.00 | 0.00 | 64 | 1003.3 |
| 20260503221600 | 66 | 313 | 0.9 | 7.8 | 0.00 | 0.00 | 0.00 | 63 | 1003.5 |
| 20260503220057 | 67 | 98 | 0.0 | 4.3 | 0.00 | 0.00 | 0.00 | 64 | 1003.7 |
| 20260503214558 | 66 | 242 | 0.9 | 4.3 | 0.00 | 0.00 | 0.00 | 64 | 1003.7 |
| 20260503213051 | 65 | 240 | 0.0 | 9.6 | 0.00 | 0.00 | 0.00 | 66 | 1003.7 |
| 20260503211548 | 66 | 246 | 0.0 | 3.5 | 0.00 | 0.00 | 0.00 | 65 | 1003.7 |
| 20260503210045 | 65 | 63 | 0.0 | 4.3 | 0.00 | 0.00 | 0.00 | 66 | 1003.7 |
| 20260503204544 | 65 | 232 | 0.9 | 5.2 | 0.00 | 0.00 | 0.00 | 68 | 1003.8 |
| 20260503203037 | 64 | 267 | 0.9 | 6.1 | 0.00 | 0.00 | 0.00 | 69 | 1003.7 |
| 20260503201537 | 64 | 350 | 0.9 | 3.5 | 0.00 | 0.00 | 0.00 | 69 | 1004.0 |
| 20260503200030 | 62 | 233 | 0.9 | 4.3 | 0.00 | 0.00 | 0.00 | 71 | 1003.9 |
| 20260503194526 | 63 | 226 | 0.0 | 7.0 | 0.00 | 0.00 | 0.00 | 70 | 1003.9 |